Location: Rowland
(34.5359°N, 79.2929°W)
Time: 03:55:19
(UTC+00:00)

Transit 2A - Pass Details

Date: 10 October 2022
Orbit: 597 x 959 km, 66.7° (Epoch: 08 December)

Event Time Altitude Azimuth Distance (km) Brightness Sun altitude
Rises 12:03:33 0° 327° (NNW) 3,047 8.7 8.2°
Reaches altitude 10° 12:05:49 10° 323° (NW) 2,178 7.9 8.7°
Maximum altitude 12:10:39 54° 247° (WSW) 919 6.3 9.6°
Drops below altitude 10° 12:15:59 10° 171° (S) 2,401 9.0 10.7°
Sets 12:18:35 0° 167° (SSE) 3,389 9.8 11.2°
